Weather in Kansas City

United States     39°06′30″N   94°33′10″W
temp.,
°C
wind,
m/s
gust,
m/s
humid.,
%
clouds,
%
prec.,
mm/h
press.,
hPa
HPBL,
m
7 may, fri
fri701:00+9wsw33610 0.0 102241
04:00+8sw36624 0.0 102196
07:00+8wsw410658 0.0 1022215
10:00+16wsw58535 0.0 1021574
13:00+20wsw574852 0.0 10191326
16:00+13sw3678100 0.1 1018224
19:00+13ssw3671100 0.1 1017162
22:00+13sse3768100 0.0 1016185
8 may, sat
sat801:00+12se3886100 0.4 1016247
04:00+12ese41190100 0.9 1014334
07:00+12ese5119090 1.4 1013344
10:00+17se6981100 0.0 1010761
13:00+19s5879100 0.1 10071087
16:00+22s61074100 0.4 10041271
19:00+22s71380100 0.6 10011139
22:00+19s6159194 1.0 1001880
9 may, sun
sun901:00+21ssw9208797 2.8 9971237
04:00+21sw71881100 0.2 9971334
07:00+17nw71093100 0.8 999512
10:00+10n61292100 1.0 1007637
13:00+11n7978100 1.1 1011937
16:00+12nne5770100 0.1 10131038
19:00+10nne4675100 0.1 1016910
22:00+9nne4775100 0.0 1019806
10 may, mon
mon1001:00+8nne36767 0.0 1020490
04:00+5nne239176 0.0 102190
07:00+6nne2686100 0.0 1022199
10:00+10ne3567100 0.0 1024592
13:00+13ene355798 0.0 10231383
16:00+14ene3458100 0.1 10231344
19:00+13ne3570100 0.2 1023603
22:00+8ene38937 0.1 1026246
11 may, tue
tue1101:00+6e39935 0.1 1027220
04:00+5e379396 0.0 1028158
07:00+5e289088 0.0 1029234
10:00+11e4660100 0.0 1030767
13:00+11e4663100 0.2 1028988
16:00+15e565265 0.0 10261382
19:00+14e4765100 0.0 1025910
22:00+11e51271100 0.0 1025464